Regional Weather Roundup
Issued by NWS

Home | Current Version | Previous Version | Text Only | Print | Product List | Glossary On
Versions: 1 2 3 4 5 6 7 8 9 10 11 12 13 14 15 16 17 18 19 20 21 22 23 24 25 26 27 28 29 30 31 32 33 34 35 36 37 38 39 40 41 42 43 44 45 46 47 48 49 50
000
ASUS44 KFWD 211315
RWRTX
NORTH TEXAS HOURLY WEATHER ROUNDUP
NATIONAL WEATHER SERVICE FORT WORTH TX
700 AM CST TUE FEB 21 2017

NOTE: "FAIR" INDICATES FEW OR NO CLOUDS BELOW 12,000 FEET WITH NO
SIGNIFICANT WEATHER AND/OR OBSTRUCTIONS TO VISIBILITY.

TXZ118-119-211400-
DALLAS/FORT WORTH METROPLEX

CITY           SKY/WX    TMP DP  RH WIND       PRES   REMARKS
DFW AIRPORT    PTCLDY    52  47  83 NW10      29.93R
DALLAS LOVE    PTCLDY    52  48  86 NW9       29.94R
FTW MEACHAM    CLEAR     52  42  69 NW15      29.95R
DAL-EXECUTIVE  CLEAR     52  48  86 NW12      29.93R
FTW-ALLIANCE   PTCLDY    48  42  80 W3        29.95R
FTW-NAS-JRB    PTCLDY    53  44  71 NW12      29.96R
FTW-SPINKS     CLEAR     52  43  71 NW7       29.97R
ARLINGTON      CLEAR     50  43  77 NW6       29.95R
GRAND PRAIRIE  PTCLDY    52  45  76 CALM      29.97R
ADDISON        CLEAR     52  48  87 NW7       29.95R
MESQUITE       CLEAR     54  54 100 W7        29.94R FOG
LANCASTER      FOG       49  49  99 W5        29.95S VSB 1/2
$$

TXZ091>094-102>105-117-120-121-131>134-211400-
NORTH CENTRAL TEXAS

CITY           SKY/WX    TMP DP  RH WIND       PRES   REMARKS
SHRMAN/DENISON CLEAR     45  45 100 W6        29.96R FOG
GAINESVILLE    CLEAR     48  44  84 NW9       29.98R
BOWIE          CLEAR     47  43  84 W8        29.99R
BRIDGEPORT     CLEAR     50  41  72 NW6       30.01R
DECATUR        CLEAR     48  42  79 NW8       29.97R
DENTON         CLEAR     50  45  83 NW9       29.95R
MCKINNEY       PTCLDY    48  48 100 NW7       29.93R FOG
BONHAM         FOG       50  50 100 NW6       29.93S VSB 1/4
GREENVILLE     CLOUDY    55  54  94 W3        29.93R FOG
ROCKWALL       FOG       54  54 100 NW6       29.93S VSB 3/4
TERRELL        CLOUDY    55  53  93 NW5       29.92F
WAXAHACHIE     CLEAR     50  49  99 NW7       29.95R
CLEBURNE       CLEAR     48  45  87 W14       29.98R
GRANBURY       CLEAR     50  39  66 W8        30.01R
$$

TXZ083>090-098>101-113>116-127>130-139>142-154-155-211400-
WESTERN NORTH TEXAS

CITY           SKY/WX    TMP DP  RH WIND       PRES   REMARKS
WICHITA FALLS  CLEAR     47  39  74 NW15      30.01R
WF-KICKAPOO    CLEAR     48  38  68 NW9       30.03R
VERNON         CLEAR     44  32  64 NW12      30.06S WCI  38
ABILENE        CLEAR     44  28  53 NW6       30.09R
ABILENE-DYESS  CLEAR     46  29  51 W8        30.07S
GRAHAM         CLEAR     46  37  71 W9        30.02R
BRECKENRIDGE   CLEAR     50  33  52 NW7       30.05R
CISCO          PTCLDY    48  30  49 NW10      30.05R
RANGER         CLEAR     48  32  53 NW7       30.04R
MINERAL WELLS  CLEAR     47  38  71 W9        30.00R
STEPHENVILLE   CLEAR     52  35  51 NW10      30.04R
COMANCHE       CLEAR     50  33  51 NW7       30.04R
BROWNWOOD      CLEAR     39  36  87 CALM      30.06R
COLEMAN        CLEAR     50  27  40 W8        30.06S
$$

TXZ143>147-156>162-174-175-211400-
CENTRAL TEXAS

CITY           SKY/WX    TMP DP  RH WIND       PRES   REMARKS
WACO           CLEAR     49  44  83 MISG      29.95R
WACO-TSTC      CLEAR     46  46 100 CALM      29.96
WACO-MCGREGOR  CLEAR     51  42  71 NW10      29.96R
HILLSBORO      PTCLDY    48  47  99 NW7       29.95R
CORSICANA      FOG       54  54 100 W6        29.94S VSB 3/4
MEXIA          CLOUDY    55  54  97 N5        29.92S FOG
HEARNE         PTCLDY    54  53  99 W5        29.95R
CAMERON        CLEAR     51  47  86 W9        29.96R
TEMPLE         PTCLDY    52  42  69 NW14      29.97R
KILLEEN        CLEAR     54  37  52 NW12      29.98R
KILLEEN-SKYLRK CLEAR     53  39  59 NW10G16   29.98R
FORT HOOD      CLEAR     50  40  70 NW13      29.96R
GATESVILLE     PTCLDY    52  37  58 NW8       30.01R
HAMILTON       CLEAR     50  35  57 NW14      30.02R
LAMPASAS       CLEAR     51  38  61 NW9       30.00R
$$

TXZ095>097-106>112-122>126-135>138-148>153-164>167-211400-
EAST TEXAS

CITY           SKY/WX    TMP DP  RH WIND       PRES   REMARKS
PARIS          CLOUDY    55  54  94 NW7       29.92R
SULPHUR SPRNGS CLOUDY    56  56 100 W5        29.94S
MOUNT PLEASANT CLOUDY    56  56 100 W6        29.94R
GILMER         CLOUDY    56  56  99 SW5       29.92R
MINEOLA        CLOUDY    57  55  94 CALM      29.92S
TYLER          CLOUDY    58  58 100 SW5       29.91S FOG
LONGVIEW       CLOUDY    58  58 100 SW6       29.91S FOG
MARSHALL       CLOUDY    55  53  94 SW5       29.94S
ATHENS         CLOUDY    55  55 100 CALM      29.91S FOG
PALESTINE      MOCLDY    57  57 100 CALM      29.94S FOG
JACKSONVILLE   CLOUDY    57  57 100 SW6       29.94S FOG
HENDERSON      CLOUDY   N/A N/A N/A CALM      29.93S HAZE
CENTER         CLOUDY    61  60  95 SE6       29.94S
NACOGDOCHES    CLOUDY    57  55  94 SW5       29.92S
LUFKIN         CLOUDY    57  57 100 CALM      29.94S
$$

SUPPLEMENTAL OBSERVATIONS (CENTRAL)

CITY           SKY/WX    TMP DP  RH WIND       PRES   REMARKS
DENISON DAM      N/A     48  46  93 NW13        N/A
CADDO GRASSLND   N/A     52  50  93 NW5         N/A
PAT MAYSE LAKE   N/A     52  50  93 W6          N/A
GREENVILLE       N/A     55  54  94 W8          N/A
CEDAR HILL       N/A     48  46  93 W1          N/A
ATHENS           N/A     57  55  94 SW1         N/A
LAKE LIMESTONE   N/A     55  54  94 W3          N/A
MCGREGOR         N/A     52  45  76 NW7         N/A
TEMPLE           N/A     52  43  71 NW2         N/A
$$

SUPPLEMENTAL OBSERVATIONS (WEST)

CITY           SKY/WX    TMP DP  RH WIND       PRES   REMARKS
MILLERS CREEK    N/A     43  32  65 NW8         N/A  WCI  38
POSSUM KINGDOM   N/A     48  32  53 W9          N/A
LBJ GRASSLAND    N/A     46  41  81 NW5         N/A
GRANBURY         N/A     50  39  66 W10         N/A
COMANCHE         N/A     52  32  46 NW12        N/A
HAMBY            N/A     36  32  87 W5          N/A  WCI  32
IVIE RESERVOIR   N/A     45  32  61 W5          N/A
COLORADO BEND    N/A     50  30  46 N6          N/A
$$

SUPPLEMENTAL OBSERVATIONS (EAST)

CITY           SKY/WX    TMP DP  RH WIND       PRES   REMARKS
TEXARKANA        N/A     57  55  94 SW1         N/A
LINDEN           N/A     55  54  94 W3          N/A
CADDO LAKE       N/A    N/A N/A N/A W2          N/A
LUFKIN           N/A     57  55  94 MISG        N/A
$$

SUPPLEMENTAL OBSERVATIONS ARE A COLLECTION OF AUTOMATED INSTRUMENTS
THAT ARE MAINTAINED BY A VARIETY OF FEDERAL AND STATE AGENCIES.
CERTAIN ELEMENTS...SUCH AS HUMIDITY VALUES AND SUSTAINED WIND
SPEEDS...MAY BE APPROXIMATED.





USA.gov is the U.S. government's official web portal to all federal, state and local government web resources and services.